This is the latest recevied weather packets stored in our database for station/object K5BV. If no packets are shown the sender has not sent any weather packets the latest 10 day(s).
| Time | Temp. | Humidity | Pressure | Rain* | Wind** | Luminosity | Snow |
|---|---|---|---|---|---|---|---|
| 1777705960 | 15.56° C | 96% | 1016.9 hPa | 0 mm | - | - | - |
| 1777705361 | 15.56° C | 96% | 1016.7 hPa | 0 mm | - | - | - |
| 1777704761 | 15.56° C | 96% | 1016.7 hPa | 0 mm | - | - | - |
| 1777704161 | 16.11° C | 97% | 1016.7 hPa | 0 mm | - | - | - |
| 1777703561 | 16.11° C | 97% | 1016.7 hPa | 0 mm | - | - | - |
| 1777702961 | 15.56° C | 97% | 1016.5 hPa | 0 mm | - | - | - |
| 1777702362 | 16.11° C | 97% | 1016.3 hPa | 0 mm | - | - | - |
| 1777701761 | 16.11° C | 97% | 1016.1 hPa | 0 mm | - | - | - |
| 1777701162 | 16.11° C | 97% | 1016 hPa | 0 mm | - | - | - |
| 1777700561 | 16.11° C | 97% | 1016 hPa | 0 mm | - | - | - |
| 1777699962 | 16.67° C | 97% | 1015.8 hPa | 0 mm | - | - | - |
| 1777699361 | 16.67° C | 97% | 1015.8 hPa | 0 mm | - | - | - |
| 1777698761 | 16.67° C | 97% | 1015.7 hPa | 0 mm | - | - | - |
| 1777698166 | 16.11° C | 97% | 1015.6 hPa | 0 mm | - | - | - |
| 1777697561 | 16.67° C | 97% | 1015.4 hPa | 0 mm | - | - | - |
| 1777696961 | 16.67° C | 97% | 1015.2 hPa | 0 mm | - | - | - |
| 1777696361 | 16.67° C | 97% | 1015.1 hPa | 0 mm | - | - | - |
| 1777695760 | 16.67° C | 97% | 1014.8 hPa | 0 mm | - | - | - |
| 1777695161 | 16.67° C | 97% | 1014.8 hPa | 0 mm | - | - | - |
| 1777694562 | 16.67° C | 97% | 1014.7 hPa | 0 mm | - | - | - |
| 1777693961 | 17.22° C | 97% | 1014.5 hPa | 0 mm | - | - | - |
| 1777693362 | 17.22° C | 97% | 1014.5 hPa | 0 mm | - | - | - |
| 1777692760 | 17.22° C | 97% | 1014.3 hPa | 0 mm | - | - | - |
| 1777692160 | 17.22° C | 97% | 1014 hPa | 0 mm | - | - | - |
| 1777691561 | 17.22° C | 97% | 1013.8 hPa | 0 mm | - | - | - |
* Rain latest hour (hover to see other rain measurements)
** Current wind speed in m/s (hover to see current wind gust speed)